Location: Berg
(47.2344°N, 9.5296°E)
Time: 17:03:39
(UTC+00:00)

SJ 16-02 - Pass Details

Date: 24 January 2021
Orbit: 606 x 616 km, 75.0° (Epoch: 01 March)

Event Time Altitude Azimuth Distance (km) Brightness Sun altitude
Rises 18:09:40 0° 225° (SW) 2,866 5.6 -19.8°
Reaches altitude 10° 18:12:05 10° 235° (SW) 1,964 4.8 -20.2°
Maximum altitude 18:16:01 32° 299° (WNW) 1,062 3.0 -20.9°
Drops below altitude 10° 18:19:59 10° 3° (N) 1,972 3.8 -21.5°
Enters shadow 18:20:29 - 6° (N) 2,153 4.0 -21.6°
